Weather History for Worland, WY

Change the Weather History Date:

Sunday, June 23, 2013

  Actual Average Record
Temperature  
Mean Temperature 65 °F 67 °F  
Max Temperature 86 °F 83 °F 105 °F (1988)
Min Temperature 44 °F 51 °F 42 °F (2009)
Degree Days  
Heating Degree Days 0 2  
Month to date heating degree days 45 84  
Since 1 June heating degree days 45 84  
Since 1 July heating degree days 7466 7860  
Cooling Degree Days 0 4  
Month to date cooling degree days 56 51  
Year to date cooling degree days 73 63  
Since 1 June cooling degree days 56 51  
Growing Degree Days 15 (Base 50)    
Moisture  
Dew Point 33 °F    
Average Humidity 42    
Maximum Humidity 76    
Minimum Humidity 8    
Precipitation  
Precipitation 0.00 in 0.02 in 0.33 in (1967)
Month to date precipitation 0.09 0.97  
Year to date precipitation 2.78 4.13  
Sea Level Pressure  
Sea Level Pressure 29.77 in    
Wind  
Wind Speed 7 mph (South)    
Max Wind Speed 17 mph    
Max Gust Speed 25 mph    
Visibility 10 miles    
Events      
T = Trace of Precipitation, MM = Missing Value Source: NWS Daily Summary

Daily Weather History Graph

Daily Weather History Graph

Search for Another Location

Airport:

Trip Planner

Search our weather history database for the weather conditions in past years. The results will help you decide how hot, cold, wet, or windy it might be!

Date:

Astronomy

Jun. 23, 2013 Rise Set
Actual Time 5:29 AM MDT 8:58 PM MDT
Civil Twilight 4:53 AM MDT 9:34 PM MDT
Nautical Twilight 4:05 AM MDT 10:22 PM MDT
Astronomical Twilight 3:04 AM MDT 11:23 PM MDT
Moon 9:10 PM MDT (6/23) 5:53 AM MDT (6/23)
Length of Visible Light 16h 41m
Length of Day
15h 28m
Full, 100% of the Moon is Illuminated
Jun 23
Full
Jun 29
Last Quarter
Jul 8
New
Jul 15
First Quarter
Jul 22
Full

Hourly Weather History & Observations

Time (MDT) Temp. Dew Point Humidity Pressure Visibility Wind Dir Wind Speed Gust Speed Precip Events Conditions
12:53 AM 55.9 °F 41.0 °F 57% 29.93 in 10.0 mi WNW 10.4 mph - N/A   Partly Cloudy
1:53 AM 52.0 °F 42.1 °F 69% 29.95 in 10.0 mi WSW 8.1 mph - N/A   Clear
2:53 AM 46.9 °F 39.0 °F 74% 29.96 in 10.0 mi South 5.8 mph - N/A   Clear
3:53 AM 46.9 °F 39.0 °F 74% 29.93 in 10.0 mi SE 6.9 mph - N/A   Clear
4:53 AM 46.9 °F 39.9 °F 77% 29.94 in 10.0 mi South 8.1 mph - N/A   Clear
5:53 AM 46.9 °F 39.9 °F 77% 29.94 in 10.0 mi SE 12.7 mph - N/A   Clear
6:53 AM 53.1 °F 41.0 °F 64% 29.91 in 10.0 mi Calm Calm - N/A   Clear
7:53 AM 55.0 °F 42.1 °F 62% 29.90 in 10.0 mi WNW 3.5 mph - N/A   Clear
8:53 AM 62.1 °F 44.1 °F 52% 29.87 in 10.0 mi Variable 3.5 mph - N/A   Clear
9:53 AM 66.0 °F 37.9 °F 36% 29.85 in 10.0 mi Calm Calm - N/A   Clear
10:53 AM 70.0 °F 37.0 °F 30% 29.83 in 10.0 mi Variable 4.6 mph - N/A   Clear
11:53 AM 73.0 °F 35.1 °F 25% 29.80 in 10.0 mi SE 8.1 mph - N/A   Clear
12:53 PM 75.9 °F 35.1 °F 23% 29.76 in 10.0 mi SSW 8.1 mph 16.1 mph N/A   Clear
1:53 PM 78.1 °F 27.0 °F 15% 29.74 in 10.0 mi Variable 5.8 mph - N/A   Clear
2:53 PM 80.1 °F 21.0 °F 11% 29.71 in 10.0 mi SSE 5.8 mph - N/A   Clear
3:53 PM 81.0 °F 15.1 °F 8% 29.68 in 10.0 mi Variable 4.6 mph - N/A   Clear
4:53 PM 84.0 °F 16.0 °F 8% 29.64 in 10.0 mi SSE 10.4 mph - N/A   Clear
5:53 PM 84.9 °F 21.0 °F 10% 29.62 in 10.0 mi SE 13.8 mph 20.7 mph N/A   Clear
6:53 PM 84.0 °F 23.0 °F 11% 29.58 in 10.0 mi South 9.2 mph 20.7 mph N/A   Clear
7:53 PM 82.9 °F 28.9 °F 14% 29.58 in 10.0 mi SW 6.9 mph - N/A   Clear
8:53 PM 75.0 °F 28.9 °F 18% 29.58 in 10.0 mi South 9.2 mph - N/A   Clear
9:53 PM 70.0 °F 27.0 °F 20% 29.60 in 10.0 mi South 8.1 mph - N/A   Clear
10:53 PM 68.0 °F 28.0 °F 22% 29.60 in 10.0 mi South 9.2 mph - N/A   Clear
11:53 PM 60.1 °F 35.1 °F 39% 29.61 in 10.0 mi SSW 4.6 mph - N/A   Clear